DAH1002 DAAG-DAAJ

Flight info

Callsign DAH1002
Flight time N/A
Altitude 39000
Route ALR DCT BNA DCT BSA UJ36 TGU UM508 BOD UB730 DJA
Aircraft B736/M-SDE2E3FGHIRWXY/LB1

Departure

Time 2026-05-06 15:15
Airport Houari Boumediene Airport (DAAG)

Arrival

Time N/A
Airport Tiska Djanet Airport (DAAJ)
Time Latitude Longitude Altitude Speed Heading
2026-05-06 14:49 36.69684 3.20781 68 ft 0 kts
2026-05-06 15:07 36.69676 3.20780 61 ft 2 kts
2026-05-06 15:08 36.69663 3.20778 69 ft 2 kts
2026-05-06 15:08 36.69649 3.20776 65 ft 2 kts
2026-05-06 15:08 36.69635 3.20774 69 ft 2 kts
2026-05-06 15:08 36.69622 3.20772 67 ft 2 kts 11°
2026-05-06 15:09 36.69610 3.20768 61 ft 1 kts 21°
2026-05-06 15:09 36.69603 3.20764 61 ft 1 kts 46°
2026-05-06 15:09 36.69599 3.20757 62 ft 1 kts 77°
2026-05-06 15:09 36.69598 3.20750 62 ft 1 kts 88°
2026-05-06 15:10 36.69598 3.20745 61 ft 0 kts 90°
2026-05-06 15:12 36.69598 3.20747 61 ft 1 kts 90°
2026-05-06 15:12 36.69598 3.20784 67 ft 8 kts 90°
2026-05-06 15:12 36.69606 3.20886 69 ft 15 kts 73°
2026-05-06 15:13 36.69592 3.21007 63 ft 15 kts 132°
2026-05-06 15:13 36.69486 3.21059 64 ft 20 kts 160°
2026-05-06 15:13 36.69385 3.21175 69 ft 23 kts 92°
2026-05-06 15:13 36.69384 3.21395 69 ft 28 kts 90°
2026-05-06 15:14 36.69383 3.21655 69 ft 32 kts 90°
2026-05-06 15:14 36.69381 3.21948 74 ft 34 kts 91°
2026-05-06 15:14 36.69505 3.22215 73 ft 57 kts 53°
2026-05-06 15:14 36.69937 3.22916 85 ft 142 kts 51°
2026-05-06 15:15 36.70598 3.24001 747 ft 159 kts 51°
2026-05-06 15:15 36.71229 3.25114 1955 ft 156 kts 61°
2026-05-06 15:15 36.71408 3.26503 2675 ft 183 kts 98°
2026-05-06 15:15 36.70904 3.28057 3514 ft 193 kts 115°
2026-05-06 15:16 36.70469 3.29035 4201 ft 197 kts 120°
2026-05-06 15:16 36.69776 3.30557 5110 ft 204 kts 118°
2026-05-06 15:16 36.69307 3.32293 5738 ft 225 kts 95°
2026-05-06 15:16 36.69172 3.34359 6069 ft 260 kts 95°
2026-05-06 15:17 36.68937 3.36740 6585 ft 283 kts 98°
2026-05-06 15:17 36.68621 3.39174 6883 ft 289 kts 100°
2026-05-06 15:17 36.68246 3.41627 6926 ft 286 kts 102°
2026-05-06 15:17 36.67833 3.44099 7277 ft 296 kts 102°
2026-05-06 15:18 36.67397 3.46590 8478 ft 291 kts 103°
2026-05-06 15:18 36.66954 3.49056 9543 ft 297 kts 103°
2026-05-06 15:18 36.66488 3.51620 10379 ft 309 kts 103°
2026-05-06 15:18 36.65989 3.54346 10767 ft 335 kts 104°
2026-05-06 15:19 36.65287 3.57134 11426 ft 346 kts 120°
2026-05-06 15:19 36.63786 3.59448 12381 ft 343 kts 143°
2026-05-06 15:19 36.61748 3.60916 13393 ft 338 kts 161°
2026-05-06 15:19 36.59547 3.62003 14289 ft 342 kts 163°
2026-05-06 15:20 36.57291 3.63045 15091 ft 347 kts 164°
2026-05-06 15:20 36.55003 3.64087 15911 ft 351 kts 164°
2026-05-06 15:20 36.52724 3.65130 16748 ft 355 kts 164°
2026-05-06 15:20 36.50393 3.66206 17596 ft 359 kts 164°
2026-05-06 15:21 36.48038 3.67301 18408 ft 362 kts 164°
2026-05-06 15:21 36.45687 3.68403 19136 ft 366 kts 164°
2026-05-06 15:21 36.43278 3.69536 19845 ft 370 kts 163°
2026-05-06 15:21 36.40857 3.70676 20604 ft 373 kts 163°
2026-05-06 15:22 36.38409 3.71831 21347 ft 377 kts 164°
2026-05-06 15:22 36.35972 3.72980 22055 ft 380 kts 164°
2026-05-06 15:22 36.33477 3.74156 22769 ft 385 kts 164°
2026-05-06 15:22 36.30960 3.75342 23480 ft 389 kts 164°
2026-05-06 15:23 36.28417 3.76540 24070 ft 393 kts 165°
2026-05-06 15:23 36.25841 3.77751 24627 ft 397 kts 165°
2026-05-06 15:23 36.23231 3.78977 25170 ft 402 kts 166°
2026-05-06 15:23 36.20629 3.80199 25706 ft 407 kts 167°
2026-05-06 15:24 36.17960 3.81451 26240 ft 411 kts 168°
2026-05-06 15:24 36.15261 3.82716 26762 ft 416 kts 168°
2026-05-06 15:24 36.12566 3.83978 27275 ft 420 kts 169°
2026-05-06 15:24 36.09806 3.85269 27781 ft 424 kts 170°
2026-05-06 15:25 36.07026 3.86569 28301 ft 429 kts 170°
2026-05-06 15:25 36.04217 3.87881 28808 ft 433 kts 171°
2026-05-06 15:25 36.01418 3.89189 29281 ft 437 kts 172°
2026-05-06 15:25 35.98555 3.90524 29754 ft 440 kts 173°
2026-05-06 15:26 35.95657 3.91869 30172 ft 444 kts 174°
2026-05-06 15:26 35.92753 3.93215 30633 ft 445 kts 173°
2026-05-06 15:26 35.89878 3.94564 31105 ft 446 kts 173°
2026-05-06 15:26 35.86967 3.95931 31546 ft 447 kts 173°
2026-05-06 15:27 35.84042 3.97300 31957 ft 448 kts 173°
2026-05-06 15:27 35.81145 3.98650 32318 ft 450 kts 173°
2026-05-06 15:27 35.78205 4.00019 32744 ft 450 kts 173°
2026-05-06 15:27 35.75266 4.01388 33291 ft 446 kts 174°
2026-05-06 15:28 35.72406 4.02721 33877 ft 442 kts 174°
2026-05-06 15:28 35.69520 4.04064 34318 ft 439 kts 174°
2026-05-06 15:28 35.66687 4.05375 34641 ft 439 kts 174°
2026-05-06 15:28 35.63811 4.06701 34959 ft 440 kts 174°
2026-05-06 15:29 35.60941 4.08026 35342 ft 438 kts 174°
2026-05-06 15:29 35.58112 4.09334 35737 ft 436 kts 174°
2026-05-06 15:29 35.55262 4.10650 36088 ft 435 kts 174°
2026-05-06 15:29 35.52422 4.11959 36430 ft 434 kts 174°
2026-05-06 15:30 35.49626 4.13248 36772 ft 433 kts 173°
2026-05-06 15:30 35.46798 4.14551 37110 ft 432 kts 173°
2026-05-06 15:30 35.44013 4.15832 37436 ft 431 kts 173°
2026-05-06 15:30 35.41204 4.17124 37779 ft 429 kts 173°
2026-05-06 15:31 35.38400 4.18413 38068 ft 428 kts 173°
2026-05-06 15:31 35.35598 4.19699 38334 ft 429 kts 173°
2026-05-06 15:31 35.32858 4.21142 38579 ft 440 kts 166°
2026-05-06 15:32 35.27562 4.25345 38846 ft 459 kts 158°
2026-05-06 15:32 35.24937 4.27607 38842 ft 461 kts 158°
2026-05-06 15:32 35.19740 4.32106 38832 ft 456 kts 158°
2026-05-06 15:33 35.14566 4.36514 38818 ft 453 kts 159°
2026-05-06 15:33 35.09402 4.40860 38809 ft 451 kts 159°
2026-05-06 15:34 35.04226 4.45196 38799 ft 450 kts 159°
2026-05-06 15:34 34.99078 4.49502 38802 ft 450 kts 159°
2026-05-06 15:35 34.93891 4.53835 38800 ft 452 kts 159°
2026-05-06 15:35 34.88700 4.58167 38798 ft 454 kts 159°
2026-05-06 15:36 34.83479 4.62519 38791 ft 457 kts 159°
2026-05-06 15:36 34.78227 4.66892 38786 ft 459 kts 159°
2026-05-06 15:37 34.72930 4.71296 38782 ft 461 kts 159°
2026-05-06 15:37 34.67646 4.75683 38780 ft 462 kts 159°
2026-05-06 15:38 34.62312 4.80104 38771 ft 462 kts 159°
2026-05-06 15:38 34.57023 4.84481 38763 ft 461 kts 159°
2026-05-06 15:39 34.51732 4.88852 38763 ft 460 kts 159°
2026-05-06 15:39 34.46460 4.93201 38759 ft 459 kts 159°
2026-05-06 15:40 34.41166 4.97560 38751 ft 458 kts 159°
2026-05-06 15:40 34.35899 5.01903 38753 ft 458 kts 159°
2026-05-06 15:41 34.30671 5.06274 38746 ft 458 kts 159°
2026-05-06 15:41 34.25448 5.10648 38742 ft 458 kts 159°
2026-05-06 15:42 34.20177 5.15050 38745 ft 459 kts 159°
2026-05-06 15:42 34.14914 5.19432 38748 ft 461 kts 159°
2026-05-06 15:43 34.09645 5.23811 38741 ft 463 kts 159°
2026-05-06 15:43 34.04333 5.28219 38751 ft 465 kts 159°
2026-05-06 15:44 33.98957 5.32675 38745 ft 468 kts 159°
2026-05-06 15:44 33.93594 5.37113 38737 ft 470 kts 158°
2026-05-06 15:45 33.88205 5.41567 38732 ft 471 kts 158°
2026-05-06 15:45 33.82800 5.46027 38739 ft 473 kts 158°
2026-05-06 15:46 33.77340 5.50525 38734 ft 474 kts 158°
2026-05-06 15:46 33.71901 5.55000 38730 ft 475 kts 158°
2026-05-06 15:47 33.66454 5.59473 38728 ft 475 kts 158°
2026-05-06 15:47 33.61016 5.63933 38730 ft 475 kts 158°
2026-05-06 15:48 33.55544 5.68412 38726 ft 474 kts 158°
2026-05-06 15:48 33.50109 5.72855 38724 ft 474 kts 158°
2026-05-06 15:49 33.44681 5.77285 38726 ft 473 kts 158°
2026-05-06 15:49 33.39224 5.81731 38726 ft 473 kts 158°
2026-05-06 15:50 33.33805 5.86139 38731 ft 472 kts 158°
2026-05-06 15:50 33.28354 5.90567 38723 ft 473 kts 158°
2026-05-06 15:51 33.22926 5.94969 38717 ft 473 kts 158°
2026-05-06 15:51 33.17487 5.99375 38722 ft 472 kts 158°
2026-05-06 15:52 33.12069 6.03757 38711 ft 472 kts 158°
2026-05-06 15:52 33.06512 6.07797 38715 ft 454 kts 169°
2026-05-06 15:53 33.03588 6.09085 38716 ft 440 kts 176°
2026-05-06 15:53 33.00667 6.09826 38713 ft 425 kts 185°
2026-05-06 15:53 32.94818 6.10716 38716 ft 425 kts 185°
2026-05-06 15:54 32.88933 6.11604 38717 ft 426 kts 185°
2026-05-06 15:54 32.83059 6.12521 38714 ft 428 kts 185°
2026-05-06 15:55 32.77137 6.13461 38721 ft 429 kts 185°
2026-05-06 15:55 32.71208 6.14406 38719 ft 431 kts 185°
2026-05-06 15:56 32.65253 6.15354 38723 ft 434 kts 185°
2026-05-06 15:56 32.59269 6.16306 38714 ft 435 kts 185°
2026-05-06 15:57 32.53229 6.17266 38717 ft 437 kts 185°
2026-05-06 15:57 32.47211 6.18221 38720 ft 438 kts 185°
2026-05-06 15:58 32.41167 6.19178 38723 ft 439 kts 185°
2026-05-06 15:58 32.35102 6.20137 38715 ft 440 kts 185°
2026-05-06 15:59 32.28986 6.21103 38719 ft 441 kts 185°
2026-05-06 15:59 32.22907 6.22062 38715 ft 442 kts 184°
2026-05-06 16:00 32.17820 6.22864 38721 ft 442 kts 184°
2026-05-06 16:00 32.11739 6.23821 38716 ft 443 kts 184°
2026-05-06 16:01 32.05611 6.24784 38715 ft 442 kts 184°
2026-05-06 16:01 31.99521 6.25739 38721 ft 442 kts 184°
2026-05-06 16:02 31.93439 6.26692 38724 ft 442 kts 184°
2026-05-06 16:02 31.87302 6.27652 38726 ft 442 kts 184°
2026-05-06 16:03 31.81227 6.28602 38733 ft 441 kts 184°
2026-05-06 16:03 31.75154 6.29550 38740 ft 441 kts 184°
2026-05-06 16:04 31.69079 6.30497 38737 ft 441 kts 184°
2026-05-06 16:04 31.62974 6.31446 38734 ft 441 kts 184°
2026-05-06 16:05 31.56901 6.32390 38735 ft 441 kts 184°
2026-05-06 16:05 31.50801 6.33336 38737 ft 442 kts 184°
2026-05-06 16:06 31.44714 6.34280 38720 ft 443 kts 184°
2026-05-06 16:06 31.38571 6.35231 38716 ft 444 kts 184°
2026-05-06 16:07 31.32459 6.36175 38713 ft 445 kts 184°
2026-05-06 16:07 31.26332 6.37121 38723 ft 445 kts 184°
2026-05-06 16:08 31.20181 6.38070 38727 ft 446 kts 184°
2026-05-06 16:08 31.14030 6.39018 38719 ft 447 kts 184°
2026-05-06 16:09 31.07838 6.39970 38730 ft 448 kts 184°
2026-05-06 16:09 31.01668 6.40918 38722 ft 449 kts 183°
2026-05-06 16:10 30.95475 6.41868 38723 ft 450 kts 183°
2026-05-06 16:10 30.89232 6.42825 38724 ft 451 kts 183°
2026-05-06 16:11 30.83017 6.43774 38724 ft 452 kts 183°
2026-05-06 16:11 30.76790 6.44724 38730 ft 453 kts 183°
2026-05-06 16:12 30.70506 6.45683 38728 ft 454 kts 183°
2026-05-06 16:12 30.64247 6.46637 38728 ft 454 kts 183°
2026-05-06 16:13 30.57983 6.47591 38724 ft 454 kts 183°
2026-05-06 16:13 30.52572 6.48414 38721 ft 454 kts 182°
2026-05-06 16:14 30.46334 6.49361 38725 ft 454 kts 182°
2026-05-06 16:14 30.40083 6.50309 38723 ft 454 kts 182°
2026-05-06 16:15 30.33820 6.51257 38724 ft 454 kts 182°
2026-05-06 16:15 30.27533 6.52208 38724 ft 453 kts 182°
2026-05-06 16:16 30.21295 6.53150 38725 ft 453 kts 182°
2026-05-06 16:16 30.15063 6.54090 38714 ft 453 kts 182°
2026-05-06 16:17 30.08792 6.55035 38720 ft 452 kts 182°
2026-05-06 16:17 30.02569 6.55971 38717 ft 451 kts 182°
2026-05-06 16:18 29.96332 6.56909 38716 ft 451 kts 182°
2026-05-06 16:18 29.90139 6.57838 38714 ft 450 kts 182°
2026-05-06 16:19 29.83921 6.58770 38711 ft 449 kts 182°
2026-05-06 16:19 29.77735 6.59696 38711 ft 449 kts 182°
2026-05-06 16:20 29.71536 6.60622 38712 ft 448 kts 182°
2026-05-06 16:20 29.65361 6.61544 38713 ft 448 kts 182°
2026-05-06 16:21 29.59142 6.62471 38709 ft 448 kts 182°
2026-05-06 16:21 29.52964 6.63391 38708 ft 448 kts 182°
2026-05-06 16:22 29.46784 6.64310 38706 ft 449 kts 182°
2026-05-06 16:22 29.40602 6.65228 38711 ft 449 kts 182°
2026-05-06 16:23 29.34379 6.66151 38705 ft 450 kts 182°
2026-05-06 16:23 29.28195 6.67068 38709 ft 450 kts 182°
2026-05-06 16:24 29.21958 6.67991 38708 ft 451 kts 182°
2026-05-06 16:24 29.15715 6.68914 38709 ft 451 kts 182°
2026-05-06 16:25 29.09526 6.69828 38709 ft 451 kts 182°
2026-05-06 16:25 29.03287 6.70749 38710 ft 451 kts 182°
2026-05-06 16:26 28.97054 6.71667 38699 ft 452 kts 182°
2026-05-06 16:26 28.90813 6.72586 38703 ft 452 kts 182°
2026-05-06 16:27 28.84578 6.73502 38715 ft 452 kts 182°
2026-05-06 16:27 28.78374 6.74412 38709 ft 452 kts 182°
2026-05-06 16:28 28.72126 6.75328 38709 ft 452 kts 182°
2026-05-06 16:28 28.65882 6.76243 38716 ft 452 kts 182°
2026-05-06 16:29 28.59633 6.77156 38716 ft 452 kts 182°
2026-05-06 16:29 28.53387 6.78069 38718 ft 452 kts 182°
2026-05-06 16:30 28.48196 6.78826 38714 ft 452 kts 182°
2026-05-06 16:30 28.40893 6.79891 38719 ft 452 kts 182°
2026-05-06 16:31 28.34694 6.80794 38722 ft 452 kts 182°
2026-05-06 16:31 28.28448 6.81702 38719 ft 452 kts 182°
2026-05-06 16:32 28.22202 6.82609 38727 ft 452 kts 182°
2026-05-06 16:32 28.15956 6.83567 38725 ft 457 kts 178°
2026-05-06 16:33 28.12890 6.84544 38726 ft 469 kts 169°
2026-05-06 16:33 28.09887 6.86096 38719 ft 481 kts 159°
2026-05-06 16:34 28.01299 6.92152 38719 ft 485 kts 156°
2026-05-06 16:34 27.95601 6.96242 38726 ft 484 kts 156°
2026-05-06 16:35 27.89915 7.00246 38729 ft 483 kts 157°
2026-05-06 16:35 27.84174 7.04246 38735 ft 484 kts 158°
2026-05-06 16:36 27.78434 7.08235 38735 ft 484 kts 157°
2026-05-06 16:36 27.72684 7.12227 38733 ft 485 kts 157°
2026-05-06 16:37 27.66972 7.16192 38739 ft 484 kts 157°
2026-05-06 16:37 27.61232 7.20172 38739 ft 484 kts 157°
2026-05-06 16:38 27.55488 7.24149 38729 ft 484 kts 157°
2026-05-06 16:38 27.49743 7.28123 38741 ft 483 kts 157°
2026-05-06 16:39 27.44004 7.32086 38749 ft 483 kts 157°
2026-05-06 16:39 27.38265 7.36044 38744 ft 484 kts 157°
2026-05-06 16:40 27.32519 7.40003 38742 ft 484 kts 157°
2026-05-06 16:40 27.26806 7.43935 38739 ft 484 kts 157°
2026-05-06 16:41 27.21055 7.47888 38746 ft 485 kts 157°
2026-05-06 16:41 27.15301 7.51837 38748 ft 485 kts 157°
2026-05-06 16:42 27.09555 7.55777 38750 ft 485 kts 157°
2026-05-06 16:42 27.03784 7.59729 38754 ft 485 kts 159°
2026-05-06 16:43 26.97964 7.63703 38756 ft 495 kts 158°
2026-05-06 16:43 26.92045 7.67742 38747 ft 498 kts 158°
2026-05-06 16:44 26.86130 7.71784 38758 ft 498 kts 158°
2026-05-06 16:44 26.80256 7.75791 38753 ft 497 kts 158°
2026-05-06 16:45 26.74347 7.79814 38755 ft 497 kts 158°
2026-05-06 16:45 26.68445 7.83825 38753 ft 497 kts 158°
2026-05-06 16:46 26.62540 7.87833 38763 ft 497 kts 158°
2026-05-06 16:46 26.56627 7.91842 38773 ft 497 kts 158°
2026-05-06 16:47 26.50705 7.95852 38765 ft 498 kts 158°
2026-05-06 16:47 26.44775 7.99863 38775 ft 499 kts 158°
2026-05-06 16:48 26.39830 8.03204 38777 ft 500 kts 158°
2026-05-06 16:48 26.32910 8.07875 38786 ft 500 kts 158°
2026-05-06 16:49 26.27923 8.11237 38793 ft 500 kts 158°
2026-05-06 16:49 26.22004 8.15222 38803 ft 499 kts 158°
2026-05-06 16:50 26.16028 8.19239 38346 ft 504 kts 158°
2026-05-06 16:50 26.13035 8.21250 37764 ft 501 kts 158°
2026-05-06 16:50 26.10056 8.23254 37162 ft 498 kts 158°
2026-05-06 16:50 26.07080 8.25252 36356 ft 500 kts 157°
2026-05-06 16:51 26.04099 8.27250 35678 ft 499 kts 156°
2026-05-06 16:51 26.01128 8.29242 34941 ft 499 kts 156°
2026-05-06 16:51 25.98191 8.31192 34428 ft 492 kts 156°
2026-05-06 16:51 25.95273 8.33081 34216 ft 479 kts 157°
2026-05-06 16:52 25.92406 8.34907 33854 ft 471 kts 157°
2026-05-06 16:52 25.89566 8.36699 33293 ft 467 kts 157°
2026-05-06 16:52 25.86749 8.38473 32770 ft 463 kts 157°
2026-05-06 16:52 25.83960 8.40233 32246 ft 459 kts 157°
2026-05-06 16:53 25.81195 8.41982 31736 ft 456 kts 156°
2026-05-06 16:53 25.78452 8.43719 31239 ft 452 kts 156°
2026-05-06 16:53 25.75729 8.45447 30752 ft 449 kts 156°
2026-05-06 16:53 25.73026 8.47161 30257 ft 446 kts 156°
2026-05-06 16:54 25.70350 8.48859 29745 ft 443 kts 156°
2026-05-06 16:54 25.67682 8.50551 29179 ft 439 kts 156°
2026-05-06 16:54 25.65047 8.52222 28651 ft 434 kts 155°
2026-05-06 16:54 25.62437 8.53876 28146 ft 430 kts 155°
2026-05-06 16:55 25.59857 8.55510 27637 ft 424 kts 155°
2026-05-06 16:55 25.57342 8.57102 27154 ft 420 kts 155°
2026-05-06 16:55 25.54815 8.58699 26679 ft 416 kts 155°
2026-05-06 16:55 25.52310 8.60283 26199 ft 413 kts 155°
2026-05-06 16:56 25.49822 8.61854 25737 ft 410 kts 155°
2026-05-06 16:56 25.47356 8.63411 25266 ft 407 kts 155°
2026-05-06 16:56 25.44907 8.64956 24805 ft 404 kts 155°
2026-05-06 16:56 25.42469 8.66494 24325 ft 402 kts 155°
2026-05-06 16:57 25.40046 8.68020 23860 ft 400 kts 155°
2026-05-06 16:57 25.37632 8.69540 23385 ft 398 kts 155°
2026-05-06 16:57 25.35228 8.71055 22852 ft 396 kts 155°
2026-05-06 16:57 25.32843 8.72557 22369 ft 392 kts 154°
2026-05-06 16:58 25.30481 8.74045 21908 ft 389 kts 154°
2026-05-06 16:58 25.28141 8.75518 21455 ft 385 kts 154°
2026-05-06 16:58 25.25822 8.76977 21010 ft 382 kts 154°
2026-05-06 16:58 25.23526 8.78421 20572 ft 378 kts 154°
2026-05-06 16:59 25.21249 8.79852 20138 ft 375 kts 154°
2026-05-06 16:59 25.18991 8.81270 19701 ft 372 kts 154°
2026-05-06 16:59 25.16751 8.82676 19273 ft 369 kts 154°
2026-05-06 16:59 25.14563 8.84049 18852 ft 366 kts 153°
2026-05-06 17:00 25.12356 8.85433 18432 ft 364 kts 153°
2026-05-06 17:00 25.10122 8.86833 17971 ft 362 kts 153°
2026-05-06 17:00 25.07967 8.88184 17498 ft 360 kts 153°
2026-05-06 17:00 25.05773 8.89559 17042 ft 356 kts 153°
2026-05-06 17:01 25.03654 8.90886 16630 ft 353 kts 153°
2026-05-06 17:01 25.01524 8.92219 16188 ft 350 kts 153°
2026-05-06 17:01 24.99417 8.93538 15772 ft 347 kts 153°
2026-05-06 17:01 24.97327 8.94845 15360 ft 344 kts 153°
2026-05-06 17:02 24.95254 8.96141 14950 ft 341 kts 153°
2026-05-06 17:02 24.93195 8.97428 14542 ft 339 kts 152°
2026-05-06 17:02 24.91148 8.98707 14129 ft 337 kts 153°
2026-05-06 17:02 24.89115 8.99976 13729 ft 335 kts 153°
2026-05-06 17:03 24.87096 9.01237 13289 ft 333 kts 153°
2026-05-06 17:03 24.85090 9.02488 12862 ft 330 kts 152°
2026-05-06 17:03 24.83096 9.03732 12451 ft 328 kts 152°
2026-05-06 17:03 24.81118 9.04966 12051 ft 325 kts 152°
2026-05-06 17:04 24.79158 9.06188 11655 ft 323 kts 152°
2026-05-06 17:04 24.77226 9.07392 11246 ft 321 kts 152°